Tracking 19247 objects as of 22-Sep-2018
HD Live streaming from Space Station
objects crossing your sky now

FENGYUN 1C DEB

Track FENGYUN 1C DEB now!
10-day predictions


NORAD ID: 30575
Int'l Code: 1999-025ALR
Perigee: 756.7 km
Apogee: 846.7 km
Inclination: 99.2 °
Period: 100.8 minutes
Semi major axis: 7172 km
RCS: 0.029 m2 (small)
Launch date: May 10, 1999
Source: People's Republic of China (PRC)
Launch site: Taiyaun Space Center, China (TSC)

Note: This is SATELLITE DEBRIS
aabbcc
Your satellite tracking list
Your tracking list is empty




NASA's NSSDC Master Catalog

Two Line Element Set (TLE):
1 30575U 99025ALR 18263.70175598 +.00000069 +00000-0 +45560-4 0  9996
2 30575 099.1725 157.7780 0062689 321.6612 097.4767 14.29152080604307
Source of the keplerian elements: AFSPC